Torna al catalogo

DELTA 1 DEB

AttivoLEO
NORAD 13532·DEBRIS·🇺🇸 United States

Lanciato Jul 29, 1976 da Vandenberg Space Force Base

Loading…

Prossimi Passaggi (prossime 24 ore)

TLE

AggiornatoSource: Space-Track

Epoca: Sep 14, 2026, 06:58 UTC

1 13532U 76077EE  26257.29094698 -.00000145  00000-0 -12428-2 0  9991
2 13532 102.2633 185.7396 0283745 209.4914 307.2595 11.94111820972287

Traccia DELTA 1 DEB in tempo reale con AllMySat

Download on the App Store